Total_Precipitation_Accumulation
0.21 0.15 0.14 0.19 0.20 0.18 0.09 0.07 0.06 0.03 0.03 0.02 0.03 0.02 0.03 0.05 0.07 0.13 0.13 0.09 0.09 0.14 0.24 0.47 0.69 0.75 0.77 0.78 0.75 0.74 0.65 0.60 0.61 0.71 0.79 0.77 0.75 0.72 0.75 0.79 0.85 0.92 0.94 0.93 0.89 0.85 0.80 0.66 0.59
0.19 0.20 0.23 0.31 0.24 0.16 0.09 0.07 0.09 0.06 0.05 0.03 0.03 0.04 0.03 0.05 0.05 0.08 0.13 0.13 0.09 0.14 0.26 0.43 0.64 0.76 0.82 0.81 0.76 0.72 0.66 0.67 0.66 0.71 0.79 0.81 0.77 0.73 0.75 0.80 0.84 0.91 0.92 0.97 0.94 0.85 0.81 0.67 0.58
0.24 0.29 0.33 0.35 0.24 0.16 0.13 0.09 0.11 0.10 0.08 0.04 0.04 0.05 0.05 0.06 0.06 0.08 0.11 0.12 0.13 0.18 0.29 0.47 0.68 0.82 0.89 0.88 0.83 0.79 0.73 0.73 0.75 0.78 0.83 0.84 0.85 0.80 0.77 0.72 0.77 0.86 0.92 0.95 0.96 0.85 0.79 0.70 0.60
0.35 0.44 0.44 0.35 0.21 0.14 0.11 0.10 0.12 0.13 0.11 0.06 0.05 0.06 0.05 0.06 0.07 0.08 0.12 0.14 0.17 0.21 0.29 0.47 0.70 0.87 0.91 0.89 0.90 0.81 0.80 0.82 0.82 0.84 0.92 0.91 0.89 0.85 0.81 0.73 0.73 0.72 0.80 0.86 0.89 0.83 0.82 0.74 0.64
0.45 0.53 0.49 0.33 0.18 0.11 0.08 0.08 0.10 0.12 0.11 0.08 0.06 0.05 0.08 0.09 0.10 0.12 0.16 0.19 0.22 0.29 0.36 0.51 0.75 0.93 0.98 0.98 0.99 0.94 0.91 0.92 0.92 0.91 0.97 1.04 0.97 0.94 0.86 0.77 0.72 0.64 0.66 0.73 0.81 0.78 0.77 0.76 0.69
0.61 0.56 0.41 0.28 0.17 0.08 0.06 0.08 0.09 0.11 0.12 0.11 0.08 0.07 0.11 0.15 0.16 0.19 0.23 0.29 0.31 0.37 0.48 0.64 0.93 1.05 1.11 1.15 1.14 1.08 1.10 1.12 1.10 1.09 1.07 1.12 1.08 0.96 0.87 0.80 0.75 0.69 0.68 0.71 0.75 0.75 0.75 0.76 0.73
0.61 0.50 0.30 0.23 0.18 0.10 0.07 0.08 0.10 0.11 0.14 0.13 0.12 0.10 0.14 0.20 0.22 0.24 0.29 0.34 0.39 0.47 0.59 0.71 0.91 1.09 1.27 1.38 1.40 1.33 1.28 1.27 1.24 1.22 1.20 1.19 1.18 1.13 1.03 0.95 0.86 0.80 0.76 0.75 0.71 0.66 0.65 0.66 0.68
0.61 0.57 0.32 0.21 0.19 0.13 0.09 0.09 0.11 0.14 0.16 0.16 0.14 0.12 0.14 0.22 0.25 0.31 0.37 0.45 0.51 0.61 0.71 0.80 0.94 1.09 1.26 1.42 1.54 1.46 1.34 1.30 1.32 1.34 1.29 1.30 1.27 1.24 1.19 1.04 0.91 0.84 0.80 0.74 0.70 0.65 0.61 0.56 0.52
0.72 0.73 0.39 0.21 0.18 0.15 0.13 0.14 0.13 0.15 0.19 0.22 0.18 0.14 0.16 0.23 0.32 0.41 0.50 0.61 0.69 0.79 0.86 0.91 1.05 1.16 1.32 1.45 1.42 1.47 1.44 1.39 1.36 1.32 1.25 1.25 1.23 1.15 1.06 0.96 0.92 0.90 0.87 0.80 0.77 0.72 0.64 0.53 0.43
0.84 0.67 0.35 0.19 0.17 0.17 0.17 0.18 0.18 0.21 0.24 0.27 0.25 0.20 0.22 0.31 0.41 0.45 0.49 0.55 0.69 0.84 0.94 1.00 1.11 1.19 1.33 1.32 1.39 1.51 1.45 1.38 1.32 1.20 1.21 1.16 1.17 1.14 1.00 0.97 0.97 0.94 0.91 0.89 0.88 0.82 0.71 0.57 0.43
0.71 0.50 0.27 0.19 0.16 0.17 0.21 0.19 0.18 0.24 0.24 0.28 0.27 0.23 0.28 0.39 0.50 0.52 0.53 0.54 0.62 0.80 0.99 1.05 1.15 1.24 1.34 1.33 1.34 1.46 1.43 1.39 1.35 1.30 1.25 1.23 1.25 1.26 1.17 1.08 1.08 1.01 0.93 0.92 0.92 0.86 0.70 0.62 0.55
0.53 0.35 0.25 0.21 0.20 0.21 0.23 0.19 0.17 0.22 0.22 0.24 0.28 0.26 0.30 0.41 0.48 0.54 0.61 0.62 0.70 0.87 1.04 1.15 1.29 1.36 1.40 1.43 1.38 1.37 1.42 1.40 1.34 1.34 1.31 1.28 1.26 1.25 1.20 1.11 1.02 0.99 0.96 0.95 0.94 0.90 0.77 0.67 0.58
0.42 0.30 0.25 0.24 0.24 0.23 0.24 0.19 0.18 0.20 0.20 0.25 0.34 0.32 0.32 0.41 0.50 0.61 0.75 0.78 0.82 0.92 1.08 1.25 1.42 1.47 1.50 1.53 1.53 1.44 1.38 1.36 1.31 1.29 1.30 1.26 1.22 1.18 1.14 1.07 1.00 0.96 0.93 0.89 0.85 0.81 0.74 0.66 0.61
0.37 0.31 0.28 0.29 0.32 0.27 0.27 0.22 0.17 0.17 0.19 0.28 0.37 0.35 0.35 0.45 0.54 0.63 0.78 0.88 0.90 0.95 1.10 1.31 1.47 1.54 1.58 1.56 1.51 1.45 1.41 1.36 1.36 1.31 1.23 1.21 1.19 1.16 1.13 1.09 1.04 0.98 0.95 0.93 0.88 0.81 0.74 0.64 0.58
0.43 0.46 0.43 0.36 0.33 0.33 0.34 0.29 0.16 0.13 0.16 0.29 0.37 0.38 0.38 0.48 0.59 0.62 0.69 0.81 0.91 1.01 1.20 1.42 1.59 1.68 1.69 1.66 1.59 1.52 1.48 1.43 1.36 1.33 1.32 1.27 1.20 1.15 1.16 1.15 1.07 0.96 0.91 0.90 0.90 0.89 0.87 0.79 0.69
0.63 0.72 0.63 0.41 0.30 0.30 0.49 0.42 0.16 0.12 0.17 0.29 0.43 0.43 0.39 0.46 0.60 0.67 0.71 0.81 0.96 1.13 1.27 1.45 1.71 1.81 1.77 1.76 1.73 1.69 1.57 1.50 1.45 1.38 1.39 1.37 1.31 1.24 1.23 1.20 1.13 1.03 0.99 0.93 0.87 0.85 0.85 0.82 0.77
0.92 0.83 0.57 0.38 0.30 0.31 0.46 0.40 0.18 0.16 0.19 0.27 0.40 0.47 0.45 0.48 0.63 0.76 0.80 0.83 1.01 1.13 1.21 1.43 1.69 1.81 1.80 1.82 1.82 1.84 1.76 1.63 1.56 1.50 1.44 1.40 1.36 1.29 1.28 1.24 1.17 1.11 1.09 1.04 0.94 0.87 0.79 0.73 0.70
0.76 0.60 0.47 0.39 0.34 0.38 0.37 0.28 0.19 0.19 0.22 0.26 0.35 0.46 0.51 0.48 0.52 0.69 0.82 0.90 1.04 1.22 1.32 1.44 1.70 1.81 1.91 1.96 1.98 1.94 1.88 1.77 1.68 1.61 1.48 1.42 1.43 1.39 1.32 1.27 1.20 1.17 1.14 1.09 1.01 0.92 0.82 0.72 0.68
0.49 0.50 0.48 0.38 0.32 0.47 0.42 0.30 0.23 0.23 0.23 0.28 0.38 0.42 0.49 0.48 0.51 0.64 0.79 0.96 1.13 1.26 1.36 1.43 1.62 1.71 1.92 2.06 1.95 1.83 1.74 1.69 1.67 1.62 1.60 1.54 1.56 1.57 1.49 1.39 1.33 1.28 1.21 1.10 1.01 0.97 0.93 0.87 0.82
0.59 0.63 0.54 0.42 0.36 0.51 0.50 0.36 0.26 0.27 0.26 0.28 0.36 0.40 0.45 0.47 0.54 0.62 0.75 0.90 1.03 1.15 1.22 1.30 1.50 1.67 1.84 1.97 1.92 1.78 1.74 1.69 1.68 1.65 1.70 1.75 1.74 1.73 1.64 1.49 1.43 1.38 1.31 1.22 1.11 1.03 1.00 0.94 0.91
0.62 0.57 0.51 0.47 0.47 0.55 0.59 0.51 0.32 0.27 0.24 0.29 0.34 0.40 0.47 0.44 0.48 0.55 0.66 0.81 0.93 1.05 1.10 1.22 1.45 1.63 1.85 2.02 2.15 2.08 2.05 2.00 1.91 1.79 1.71 1.70 1.73 1.70 1.61 1.48 1.42 1.42 1.39 1.31 1.20 1.11 1.04 0.97 0.86
0.63 0.39 0.41 0.49 0.74 0.85 0.71 0.80 0.43 0.32 0.27 0.29 0.33 0.35 0.42 0.44 0.49 0.55 0.63 0.73 0.84 0.95 1.03 1.15 1.46 1.68 1.85 2.00 2.09 2.14 2.09 2.00 1.86 1.73 1.69 1.63 1.60 1.60 1.56 1.54 1.46 1.37 1.32 1.24 1.17 1.12 1.07 1.04 0.98
0.54 0.38 0.43 0.59 0.82 0.94 0.70 0.83 0.51 0.33 0.36 0.34 0.34 0.34 0.35 0.39 0.44 0.52 0.61 0.71 0.83 0.95 0.99 1.08 1.29 1.55 1.76 1.94 1.99 2.05 2.04 1.96 1.93 1.92 1.85 1.82 1.73 1.62 1.58 1.54 1.54 1.47 1.37 1.27 1.20 1.18 1.15 1.11 1.04
0.61 0.69 0.78 0.89 1.31 1.52 0.63 0.60 0.47 0.39 0.46 0.43 0.38 0.35 0.32 0.36 0.40 0.49 0.61 0.69 0.82 1.04 1.07 1.11 1.20 1.38 1.62 1.80 1.86 1.88 1.90 1.88 1.87 1.92 1.90 1.86 1.76 1.63 1.50 1.47 1.45 1.41 1.32 1.22 1.18 1.18 1.20 1.18 1.10
1.02 1.49 2.21 2.34 2.31 1.37 0.36 0.40 0.48 0.38 0.38 0.43 0.44 0.36 0.30 0.33 0.38 0.44 0.55 0.71 0.78 0.96 1.07 1.13 1.20 1.23 1.41 1.65 1.74 1.69 1.75 1.73 1.69 1.74 1.72 1.69 1.66 1.58 1.49 1.38 1.30 1.25 1.20 1.17 1.14 1.14 1.12 1.12 1.15
1.12 1.39 1.76 1.65 1.14 0.55 0.27 0.32 0.37 0.32 0.30 0.32 0.35 0.33 0.30 0.30 0.34 0.39 0.44 0.64 0.79 0.87 0.96 1.07 1.16 1.21 1.29 1.41 1.58 1.62 1.72 1.70 1.63 1.63 1.63 1.58 1.51 1.45 1.42 1.40 1.31 1.18 1.11 1.11 1.14 1.13 1.10 1.10 1.13
0.93 1.07 0.95 1.18 0.81 0.55 0.41 0.28 0.26 0.23 0.23 0.23 0.29 0.31 0.33 0.33 0.36 0.40 0.45 0.58 0.73 0.79 0.85 0.99 1.10 1.23 1.26 1.26 1.40 1.50 1.59 1.63 1.56 1.52 1.51 1.50 1.45 1.43 1.45 1.42 1.40 1.32 1.22 1.13 1.11 1.11 1.08 1.12 1.13
0.74 0.86 1.13 1.61 1.35 0.74 0.40 0.27 0.34 0.30 0.29 0.27 0.29 0.34 0.36 0.38 0.37 0.42 0.50 0.56 0.66 0.74 0.81 0.93 0.99 1.17 1.33 1.30 1.32 1.44 1.48 1.55 1.57 1.50 1.44 1.34 1.30 1.36 1.46 1.49 1.44 1.45 1.41 1.32 1.22 1.14 1.10 1.15 1.17
0.74 1.02 1.31 1.43 1.19 0.88 0.52 0.40 0.41 0.37 0.35 0.36 0.36 0.42 0.46 0.45 0.42 0.44 0.54 0.61 0.65 0.71 0.78 0.94 1.00 1.09 1.31 1.39 1.36 1.37 1.44 1.49 1.55 1.54 1.44 1.29 1.22 1.24 1.34 1.42 1.43 1.44 1.45 1.41 1.36 1.27 1.20 1.19 1.19
0.62 0.81 1.02 1.37 1.11 0.72 0.61 0.43 0.32 0.30 0.30 0.33 0.36 0.42 0.49 0.50 0.52 0.54 0.62 0.66 0.67 0.73 0.79 0.91 0.95 1.02 1.19 1.36 1.43 1.40 1.41 1.51 1.53 1.47 1.41 1.35 1.29 1.24 1.27 1.39 1.51 1.48 1.46 1.43 1.41 1.37 1.37 1.39 1.34